Location: Grust
(42.8833°N, 0.0333°W)
Time: 14:46:16
(UTC+00:00)

FALCON 9 DEB - Pass Details

Date: 25 October 2020
Orbit: 383 x 397 km, 53.0° (Epoch: 24 November)

Event Time Altitude Azimuth Distance (km) Brightness Sun altitude
Rises 18:30:02 0° 241° (WSW) 2,303 7.9 -16.8°
Reaches altitude 10° 18:32:07 10° 245° (WSW) 1,446 6.8 -17.2°
Maximum altitude 18:35:20 61° 327° (NNW) 456 3.3 -17.8°
Enters shadow 18:36:12 42° 27° (NNE) 587 3.5 -17.9°
